Weather observations for the past three days for
Rochester, Rochester International Airport
Imperial (Metric)
Date Time (cdt) Wind (mph) Vis. (mi.) Weather Sky Cond. Temperature (ºF) Relative Humidity Wind Chill (°F) Heat Index (°F) Pressure Precipitation (in)
Air Dwpt 6 hour altimeter (in) sea level (mb) 1 hr 3 hr 6 hr
Max. Min.
22 10:54 N 8 10.00 Overcast BKN016 OVC020 72 68 87% 29.83 1009.6
22 09:54 NW 6 10.00 Overcast OVC010 70 66.9 90% 29.85 1010.3 0.01
22 08:54 NW 7 10.00 Overcast BKN005 OVC010 68 66.9 96% 29.85 1010.3
22 07:54 NW 7 2.50 Fog/Mist OVC003 66.9 66 97% 29.84 1010.0 0.01
22 06:54 W 3 10.00 Light Rain OVC002 66.9 66 66.9 66 97% 29.84 1009.8 0.02 2.08
22 05:54 SE 8 10.00 Light Rain OVC004 66.9 66 97% 29.84 1009.9 0.01
22 04:54 E 10 10.00 Overcast SCT004 OVC090 66 64.9 96% 29.83 1009.7 0.02
22 03:54 E 7 8.00 Light Rain FEW003 BKN075 OVC100 66 64.9 96% 29.88 1011.4 0.29 2.03
22 02:54 NE 7 1.75 Heavy Rain Fog/Mist BKN029 OVC035 66 64.9 96% 29.92 1012.7 0.7
22 01:54 E 13 5.00 Rain Fog/Mist FEW027 BKN046 OVC070 66.9 66 97% 29.94 1013.2 1.04
22 00:54 SE 14 2.50 Thunderstorm in Vicinity Heavy Rain Fog/Mist BKN037 BKN055 OVC090 68 66 71.1 68 93% 29.96 1013.9 0.37 0.52
21 23:54 S 8 5.00 Thunderstorm Rain Fog/Mist FEW007 BKN070 OVC100 69.1 66.9 93% 29.97 1014.2 0.15
21 22:54 SE 9 9.00 Thunderstorm in Vicinity Light Rain BKN005 BKN065 69.1 68 96% 29.99 1015.0
21 21:54 SE 9 10.00 Mostly Cloudy BKN006 69.1 68 96% 30 1015.5
21 20:54 E 7 10.00 Overcast OVC008 70 68 93% 29.98 1014.8
21 19:54 E 9 10.00 Mostly Cloudy BKN008 71.1 69.1 94% 30.02 1016.0
21 18:54 E 5 10.00 Mostly Cloudy BKN007 72 69.1 81 68 91% 30.03 1016.6 0.76
21 17:54 E 6 10.00 Mostly Cloudy FEW047 SCT070 BKN110 73 69.1 87% 30.05 1017.1
21 16:54 E 10 10.00 A Few Clouds FEW006 72 69.1 91% 30.07 1018.0 0.02
21 15:54 E 13 10.00 Overcast SCT006 BKN055 OVC085 70 68 93% 30.09 1018.4 0.33 0.74
21 14:54 NE 13 1.00 Thunderstorm in Vicinity Heavy Rain Fog/Mist SCT004 OVC013 68 66.9 96% 30.11 1019.4 0.41
21 13:54 N 18 10.00 Thunderstorm FEW012 BKN028 OVC050 72 68 87% 30.1 1018.7
21 12:54 S 10 10.00 Mostly Cloudy SCT022 BKN026 BKN031 80.1 73 81 64 79% 84 30.1 1018.7 0.34
21 11:54 E 7 10.00 Mostly Cloudy BKN011 BKN120 75 69.1 82% 75 30.13 1019.7
21 10:54 SE 10 10.00 Mostly Cloudy BKN007 72 68 87% 30.14 1020.1
21 09:54 SE 10 10.00 Fair CLR 66.9 66 97% 30.14 1020.3 0.03 0.34
21 08:54 E 12 7.00 Rain OVC110 64 63 96% 30.17 1021.2 0.2
21 07:54 E 7 1.25 Fog/Mist OVC003 64 63 96% 30.2 1022.3 0.11
21 06:54 E 7 7.00 Thunderstorm Light Rain BKN003 OVC010 64 63 66 64 96% 30.19 1021.9 0.3 0.4
21 05:54 E 8 1.25 Thunderstorm in Vicinity Heavy Rain Fog/Mist BKN002 OVC006 64 63 96% 30.19 1022.1 0.1
21 04:54 E 10 0.50 Fog VV002 64 63 96% 30.2 1022.2
21 03:54 E 7 0.50 Fog VV002 64 64 100% 30.21 1022.4
21 02:54 E 6 1.25 Fog/Mist OVC002 64.9 64 97% 30.22 1022.9
21 01:54 E 6 5.00 Fog/Mist OVC003 64.9 64 97% 30.23 1023.2
21 00:54 SE 7 8.00 Light Rain OVC005 66 64 70 66 93% 30.24 1023.3 0.01 0.03
20 23:54 SE 12 8.00 Light Rain OVC004 66 64 93% 30.24 1023.5 0.01
20 22:54 E 5 10.00 Light Rain OVC006 66.9 64.9 93% 30.28 1024.9
20 21:54 E 10 10.00 Overcast BKN006 OVC095 66.9 64.9 93% 30.25 1023.8 0.01
20 20:54 NE 9 10.00 Light Rain SCT013 BKN024 OVC100 68 66 93% 30.26 1024.5 0.01
20 19:54 NE 5 10.00 Mostly Cloudy BKN120 70 66 87% 30.27 1024.8
20 18:54 SE 7 10.00 Partly Cloudy SCT120 70 66 79 69.1 87% 30.24 1023.9 0.01 0.01
20 17:54 E 12 10.00 Partly Cloudy FEW020 SCT100 72 66 82% 30.24 1023.7
20 16:54 N 10 10.00 Mostly Cloudy BKN110 77 64.9 66% 79 30.27 1024.8
20 15:54 NE 5 10.00 A Few Clouds FEW095 75.9 61 60% 78 30.29 1025.4
20 14:54 Vrbl 5 10.00 Overcast OVC043 75 59 58% 77 30.31 1026.1
20 13:54 SW 5 10.00 Overcast BKN047 OVC060 75.9 60.1 58% 78 30.31 1026.0
20 12:54 SE 7 10.00 Partly Cloudy SCT050 75.9 60.1 75.9 61 58% 78 30.3 1025.6
20 11:54 E 8 10.00 A Few Clouds FEW028 75 61 62% 77 30.31 1025.8
20 10:54 E 7 10.00 Fair CLR 73 61 66% 30.31 1025.8
20 09:54 E 9 10.00 Fair CLR 70 60.1 71% 30.32 1026.3
20 08:54 E 8 10.00 Mostly Cloudy BKN080 66.9 57.9 73% 30.34 1027.0
20 07:54 E 8 10.00 Fair CLR 64 57 78% 30.33 1026.8
20 06:54 N 6 10.00 Fair CLR 61 57 62.1 57.9 87% 30.34 1027.2
20 05:54 NE 7 10.00 Fair CLR 57.9 55 90% 30.32 1026.7
20 04:54 N 7 10.00 A Few Clouds FEW065 57.9 55 90% 30.32 1026.7
20 03:54 N 7 10.00 Fair CLR 60.1 55.9 86% 30.32 1026.6
20 02:54 NW 5 10.00 Fair CLR 60.1 57 90% 30.31 1026.3
20 01:54 N 3 10.00 Fair CLR 61 57 87% 30.3 1026.0
20 00:54 NE 6 10.00 Fair CLR 61 55.9 69.1 61 84% 30.3 1025.8
19 23:54 NE 6 10.00 Partly Cloudy SCT110 62.1 55.9 80% 30.31 1026.1
19 22:54 NE 3 10.00 Overcast OVC100 64 55.9 75% 30.31 1026.3
19 21:54 N 7 10.00 Overcast OVC110 64 55.9 75% 30.31 1026.3
19 20:54 N 6 10.00 Mostly Cloudy SCT095 BKN120 64.9 55.9 73% 30.31 1026.1
19 19:54 NE 7 10.00 Fair CLR 66.9 55.9 68% 30.29 1025.5
19 18:54 N 7 10.00 Fair CLR 69.1 55.9 70 66 63% 30.28 1025.0
19 17:54 N 9 10.00 A Few Clouds FEW095 66.9 55.9 68% 30.26 1024.6
19 16:54 N 9 10.00 Partly Cloudy SCT090 69.1 57 66% 30.27 1024.7
19 15:54 N 9 10.00 Overcast OVC100 66.9 57 71% 30.27 1024.9
19 14:54 N 10 10.00 Mostly Cloudy FEW030 BKN095 66.9 55.9 68% 30.27 1024.8
19 13:54 NW 12 10.00 Partly Cloudy SCT028 69.1 57 66% 30.26 1024.3
19 12:54 N 14 10.00 A Few Clouds FEW024 68 57 68 61 68% 30.25 1023.9 0.01
19 11:54 NW 13 10.00 Mostly Cloudy BKN022 66 57 73% 30.24 1023.8
Date Time (cdt) Wind (mph) Vis. (mi.) Weather Sky Cond. Air Dwpt Max. Min. Relative Humidity Wind Chill (°F) Heat Index (°F) altimeter (in) sea level (mb) 1 hr 3 hr 6 hr
6 hour
Temperature (ºF) Pressure Precipitation (in)